When you browse on this site, cookies collect data to enhance your experience and personalize the content and advertising you see.
Visit our Privacy Policy to learn more. By continuing to use the site, you agree to this use of cookies and data.
  • In Hungary
  • List of Countries
  • For 7 days
  • Water Temperature
  • Weather Map
  • News
  • Weather Widgets
  • user-avatar
    Login

    Hourly Weather Novye Sivai

    Today, 22 January, Wednesday

    Time Temperature Precipitation Wind Pressure Humidity
    00:00 0°C° 0 mm 7 mps 739 mmHg 89%
    01:00 +1°C° 0 mm 6 mps 739 mmHg 88%
    02:00 -1°C° 0 mm 6 mps 739 mmHg 88%
    03:00 -1°C° 0 mm 6 mps 738 mmHg 89%
    04:00 -1°C° 0 mm 6 mps 737 mmHg 90%
    05:00 0°C° 0 mm 5 mps 736 mmHg 91%
    06:00 0°C° 1.2 mm 5 mps 736 mmHg 93%
    07:00 -1°C° 1.2 mm 4 mps 735 mmHg 95%
    08:00 -1°C° 0 mm 4 mps 735 mmHg 97%
    09:00 -1°C° 0.6 mm 4 mps 734 mmHg 94%
    10:00 -1°C° 0.6 mm 4 mps 734 mmHg 91%
    11:00 0°C° 0.6 mm 5 mps 733 mmHg 87%
    12:00 0°C° 0 mm 5 mps 733 mmHg 85%
    13:00 -1°C° 0 mm 6 mps 733 mmHg 82%
    14:00 -1°C° 0 mm 6 mps 732 mmHg 79%
    15:00 -1°C° 0.1 mm 6 mps 732 mmHg 78%
    16:00 -1°C° 0.1 mm 5 mps 732 mmHg 78%
    17:00 -2°C° 0.1 mm 5 mps 733 mmHg 78%
    18:00 -2°C° 0 mm 5 mps 733 mmHg 77%
    19:00 -4°C° 0 mm 6 mps 734 mmHg 77%
    20:00 -4°C° 0 mm 6 mps 735 mmHg 77%
    21:00 -4°C° 0 mm 6 mps 735 mmHg 77%
    22:00 -4°C° 0 mm 6 mps 736 mmHg 78%
    23:00 -5°C° 0 mm 6 mps 736 mmHg 78%

    Tomorrow, 23 January, Thursday

    Time Temperature Precipitation Wind Pressure Humidity
    00:00 -6°C° 0 mm 7 mps 737 mmHg 78%
    01:00 -6°C° 0 mm 7 mps 737 mmHg 79%
    02:00 -6°C° 0 mm 7 mps 738 mmHg 79%
    03:00 -6°C° 0 mm 7 mps 738 mmHg 74%
    04:00 -7°C° 0 mm 8 mps 739 mmHg 69%
    05:00 -7°C° 0 mm 8 mps 739 mmHg 63%
    06:00 -7°C° 0 mm 7 mps 740 mmHg 65%
    07:00 -7°C° 0 mm 7 mps 740 mmHg 67%
    08:00 -6°C° 0 mm 6 mps 741 mmHg 68%
    09:00 -6°C° 0 mm 7 mps 742 mmHg 66%
    10:00 -6°C° 0 mm 7 mps 742 mmHg 65%
    11:00 -6°C° 0 mm 8 mps 743 mmHg 63%
    12:00 -4°C° 0 mm 7 mps 743 mmHg 58%
    13:00 -4°C° 0 mm 7 mps 743 mmHg 54%
    14:00 -4°C° 0 mm 7 mps 744 mmHg 50%
    15:00 -4°C° 0 mm 6 mps 744 mmHg 53%
    16:00 -5°C° 0 mm 6 mps 744 mmHg 56%
    17:00 -5°C° 0 mm 5 mps 744 mmHg 59%
    18:00 -5°C° 0 mm 5 mps 744 mmHg 61%
    19:00 -5°C° 0 mm 5 mps 744 mmHg 64%
    20:00 -5°C° 0 mm 5 mps 744 mmHg 66%
    21:00 -5°C° 0 mm 5 mps 744 mmHg 70%
    22:00 -4°C° 0 mm 4 mps 745 mmHg 75%
    23:00 -4°C° 0 mm 4 mps 745 mmHg 79%

    Day after tomorrow, 24 January, Friday

    Time Temperature Precipitation Wind Pressure Humidity
    00:00 -4°C° 0 mm 4 mps 745 mmHg 82%
    01:00 -4°C° 0 mm 4 mps 744 mmHg 86%
    02:00 -4°C° 0 mm 4 mps 744 mmHg 90%
    03:00 -4°C° 0 mm 4 mps 744 mmHg 90%
    04:00 -4°C° 0 mm 4 mps 743 mmHg 90%
    05:00 -4°C° 0 mm 4 mps 742 mmHg 91%
    06:00 -4°C° 0 mm 5 mps 742 mmHg 90%
    07:00 -4°C° 0 mm 5 mps 742 mmHg 90%
    08:00 -4°C° 0 mm 6 mps 741 mmHg 90%
    09:00 -4°C° 0.3 mm 6 mps 741 mmHg 92%
    10:00 -3°C° 0.3 mm 6 mps 740 mmHg 94%
    11:00 -3°C° 0.3 mm 7 mps 740 mmHg 96%
    12:00 -2°C° 0.2 mm 7 mps 740 mmHg 95%
    13:00 -1°C° 0.2 mm 7 mps 739 mmHg 94%
    14:00 -1°C° 0.2 mm 7 mps 739 mmHg 93%
    15:00 0°C° 0.1 mm 7 mps 739 mmHg 93%
    16:00 0°C° 0.1 mm 7 mps 738 mmHg 92%
    17:00 0°C° 0.1 mm 7 mps 738 mmHg 92%
    18:00 0°C° 0 mm 7 mps 738 mmHg 92%
    19:00 0°C° 0 mm 7 mps 738 mmHg 92%
    20:00 0°C° 0 mm 7 mps 738 mmHg 92%
    21:00 0°C° 0 mm 7 mps 738 mmHg 92%
    22:00 +1°C° 0 mm 6 mps 738 mmHg 92%
    23:00 -1°C° 0 mm 6 mps 737 mmHg 93%

    25 January, Saturday

    Time Temperature Precipitation Wind Pressure Humidity
    00:00 -1°C° 0.2 mm 6 mps 737 mmHg 93%
    01:00 +1°C° 0.2 mm 6 mps 737 mmHg 94%
    02:00 +1°C° 0.2 mm 6 mps 737 mmHg 94%
    03:00 +1°C° 0.1 mm 6 mps 737 mmHg 94%
    04:00 +1°C° 0.1 mm 6 mps 736 mmHg 93%
    05:00 +1°C° 0.1 mm 6 mps 736 mmHg 93%
    06:00 +1°C° 0.1 mm 6 mps 736 mmHg 92%
    07:00 +1°C° 0.1 mm 6 mps 736 mmHg 92%
    08:00 +1°C° 0.1 mm 6 mps 736 mmHg 91%
    09:00 +1°C° 0 mm 6 mps 736 mmHg 90%
    10:00 0°C° 0 mm 7 mps 736 mmHg 89%
    11:00 0°C° 0 mm 7 mps 736 mmHg 87%
    12:00 0°C° 0 mm 7 mps 737 mmHg 86%
    13:00 0°C° 0 mm 7 mps 737 mmHg 84%
    14:00 +1°C° 0 mm 6 mps 737 mmHg 83%
    15:00 -1°C° 0 mm 6 mps 737 mmHg 83%
    16:00 -1°C° 0 mm 6 mps 737 mmHg 83%
    17:00 -2°C° 0 mm 6 mps 737 mmHg 83%
    18:00 -2°C° 0 mm 6 mps 737 mmHg 84%
    19:00 -3°C° 0 mm 6 mps 738 mmHg 85%
    20:00 -3°C° 0 mm 6 mps 738 mmHg 86%
    21:00 -3°C° 0 mm 6 mps 739 mmHg 86%
    22:00 -3°C° 0 mm 6 mps 739 mmHg 86%
    23:00 -3°C° 0 mm 6 mps 740 mmHg 86%

    26 January, Sunday

    Time Temperature Precipitation Wind Pressure Humidity
    00:00 -3°C° 0 mm 6 mps 740 mmHg 87%
    01:00 -2°C° 0 mm 5 mps 741 mmHg 88%
    02:00 -2°C° 0 mm 5 mps 741 mmHg 89%
    03:00 -3°C° 0 mm 4 mps 742 mmHg 90%
    04:00 -3°C° 0 mm 4 mps 742 mmHg 91%
    05:00 -3°C° 0 mm 4 mps 743 mmHg 91%
    06:00 -4°C° 0 mm 3 mps 743 mmHg 91%
    07:00 -4°C° 0 mm 3 mps 744 mmHg 92%
    08:00 -4°C° 0 mm 3 mps 744 mmHg 92%
    09:00 -2°C° 0 mm 3 mps 745 mmHg 87%
    10:00 -2°C° 0 mm 2 mps 745 mmHg 83%
    11:00 -1°C° 0 mm 2 mps 746 mmHg 78%
    12:00 +1°C° 0 mm 2 mps 746 mmHg 77%
    13:00 +1°C° 0 mm 2 mps 746 mmHg 77%
    14:00 +1°C° 0 mm 2 mps 746 mmHg 76%
    15:00 -1°C° 0 mm 2 mps 746 mmHg 80%
    16:00 -1°C° 0 mm 3 mps 746 mmHg 84%
    17:00 -2°C° 0 mm 3 mps 746 mmHg 88%
    18:00 -2°C° 0 mm 3 mps 746 mmHg 89%
    19:00 -2°C° 0 mm 3 mps 746 mmHg 90%
    20:00 -2°C° 0 mm 3 mps 746 mmHg 91%
    21:00 -2°C° 0 mm 3 mps 746 mmHg 92%
    22:00 -2°C° 0 mm 3 mps 746 mmHg 92%
    23:00 -2°C° 0 mm 3 mps 746 mmHg 93%

    27 January, Monday

    Time Temperature Precipitation Wind Pressure Humidity
    00:00 -2°C° 0 mm 3 mps 746 mmHg 92%
    01:00 -1°C° 0 mm 3 mps 746 mmHg 91%
    02:00 -1°C° 0 mm 3 mps 746 mmHg 90%
    03:00 -1°C° 0 mm 3 mps 746 mmHg 89%
    04:00 -1°C° 0 mm 3 mps 746 mmHg 88%
    05:00 -2°C° 0 mm 4 mps 745 mmHg 88%
    06:00 -1°C° 0 mm 3 mps 745 mmHg 88%
    07:00 -1°C° 0 mm 3 mps 745 mmHg 89%
    08:00 -1°C° 0 mm 3 mps 745 mmHg 90%
    09:00 -2°C° 0 mm 4 mps 745 mmHg 90%
    10:00 -2°C° 0 mm 4 mps 745 mmHg 91%
    11:00 -1°C° 0 mm 4 mps 744 mmHg 92%
    12:00 -1°C° 0.1 mm 5 mps 744 mmHg 93%
    13:00 -2°C° 0.1 mm 5 mps 743 mmHg 95%
    14:00 -2°C° 0.1 mm 5 mps 742 mmHg 96%
    15:00 -1°C° 0.1 mm 5 mps 742 mmHg 96%
    16:00 -1°C° 0.1 mm 5 mps 742 mmHg 97%
    17:00 -1°C° 0.1 mm 5 mps 741 mmHg 97%
    18:00 -1°C° 0.1 mm 5 mps 741 mmHg 97%
    19:00 -1°C° 0.1 mm 5 mps 740 mmHg 97%
    20:00 -2°C° 0.1 mm 5 mps 740 mmHg 97%
    21:00 -2°C° 0.2 mm 5 mps 739 mmHg 97%
    22:00 -2°C° 0.2 mm 5 mps 739 mmHg 97%
    23:00 -2°C° 0.2 mm 5 mps 739 mmHg 97%
    Show more